Find Local Weather

World > North America > United States > Wisconsin

Elton, Wisconsin Regional Weather

Lat: 45.15N, Lon: 88.84W
Wx Zone: WIZ019
Warning FLW WEATHER ALERT - (More Info. Click Here) Warning
Feedback
Expires:201810171000;;313842
ASUS43 KMKX 170921
RWRWI 

WISCONSIN REGIONAL WEATHER ROUNDUP
NATIONAL WEATHER SERVICE MILWAUKEE/SULLIVAN WI
400 AM CDT WED OCT 17 2018

NOTE: "FAIR" INDICATES FEW OR NO CLOUDS BELOW 12,000 FEET WITH NO
SIGNIFICANT WEATHER AND/OR OBSTRUCTIONS TO VISIBILITY.


WIZ011>013-019>022-031-037>040-048>050-171000-
NORTHEAST WISCONSIN
  
CITY           SKY/WX    TMP DP  RH WIND       PRES   REMARKS
ANTIGO         CLOUDY    33  22  65 NW17G23   30.07R WCI  22          
SHAWANO        CLOUDY    39  24  53 NW12G18   30.08R WCI  32          
OCONTO         CLOUDY    39  24  55 NW13      30.06R WCI  31          
STURGEON BAY   CLOUDY    39  25  57 N20G26    30.04R WCI  29          
GREEN BAY      FAIR      38  26  62 W14       30.07R WCI  30          
MANITOWOC      CLOUDY    41  28  60 NW15G24   30.06R                  
APPLETON       CLOUDY    36  27  69 NW6       30.07R WCI  31          
CLINTONVILLE   CLOUDY    38  23  53 NW10      30.09R WCI  32          
OSHKOSH        CLOUDY    40  26  57 NW9       30.08R WCI  34          
$$
 

SKY/WX - Weather  TMP - Temperature  DP - Dew Point  RH - Relative Humidity
WIND - Wind Direction/Speed PRES - Barometric Pressure
Opt in/Opt out of Taboola Video Ads